Simultaneous Nadir Overpasses (SNOs) Predictions

Prediction of SNOs between FY3D and NOAA-19 Satellite Orbit:

Table of predicted SNOs for the next 14.0 days since TLE Epoch: 11/16/2024
Index Date (FY3D) Time (FY3D) Lat,Lon (FY3D) SZA (FY3D ) Date (NOAA-19) Time (NOAA-19) Lat,Lon (NOAA-19) SZA (NOAA-19 ) Distance(km) Time Diff (sec)
1 11/22/2024 23:54:46 75.61,-174.94 96.03 11/22/2024 23:53:39 75.60,-177.56 95.95 72.61 67
2 11/23/2024 00:45:39 -76.01, -8.98 83.60 11/23/2024 00:44:24 -76.01, -8.84 83.60 3.96 75
3 11/23/2024 01:36:25 76.02, 158.30 96.42 11/23/2024 01:35:27 76.01, 158.39 96.41 2.36 58
4 11/23/2024 02:27:09 -76.00, -34.34 83.59 11/23/2024 02:26:21 -76.02, -34.29 83.58 2.41 48
5 11/23/2024 03:17:55 76.01, 132.94 96.43 11/23/2024 03:17:24 76.02, 132.93 96.43 0.79 31
6 11/23/2024 04:08:40 -76.05, -59.86 83.54 11/23/2024 04:08:18 -76.03, -59.75 83.55 3.42 22
7 11/23/2024 04:59:26 76.05, 107.42 96.48 11/23/2024 04:59:21 76.03, 107.47 96.45 3.35 5
8 11/23/2024 05:50:10 -76.04, -85.22 83.53 11/23/2024 05:50:15 -76.04, -85.21 83.53 0.60 5
9 11/23/2024 06:40:56 76.05, 82.06 96.49 11/23/2024 06:41:18 76.03, 82.01 96.48 2.13 22
10 11/23/2024 07:31:40 -76.04,-110.59 83.52 11/23/2024 07:32:12 -76.05,-110.67 83.51 2.37 32
11 11/23/2024 08:22:26 76.05, 56.70 96.50 11/23/2024 08:23:15 76.04, 56.56 96.50 3.79 49
12 11/23/2024 09:13:11 -76.08,-136.11 83.46 11/23/2024 09:14:09 -76.05,-136.13 83.49 3.08 58
13 11/23/2024 10:03:57 76.09, 31.17 96.56 11/23/2024 10:05:11 76.09, 31.26 96.57 2.41 74
14 11/23/2024 10:54:50 -76.48,-162.96 83.08 11/23/2024 10:55:57 -76.46,-160.09 83.03 74.55 67



Historial Predications of SNOs between FY3D and NOAA-19
